Regional Weather Roundup
Issued by NWS Sioux Falls, SD

Home | Current Version | Previous Version | Text Only | Print | Product List | Glossary Off
Versions: 1 2 3 4 5 6 7 8 9 10 11 12 13 14 15 16 17 18 19 20 21 22 23 24 25 26 27 28 29 30 31 32 33 34 35 36 37 38 39 40 41 42 43 44 45 46 47 48 49 50

000
ASUS43 KFSD 280610
RWRFSD

WEATHER ROUNDUP FOR SE SOUTH DAKOTA/SW MINNESOTA/NW IOWA
NATIONAL WEATHER SERVICE SIOUX FALLS SD
1200 AM CST SUN DEC 28 2014

NOTE: "FAIR" INDICATES FEW OR NO CLOUDS BELOW 12,000 FEET WITH NO
SIGNIFICANT WEATHER AND OR OBSTRUCTIONS TO VISIBILITY.


SDZ038>040-050-052>070-280700-
SOUTHEAST SOUTH DAKOTA

CITY           SKY/WX    TMP DP  RH WIND       PRES   REMARKS
CHAMBERLAIN    CLEAR     14   9  81 W7        30.08F WCI   4
6HR MIN TEMP:  10; 6HR MAX TEMP:  15;

HURON          CLEAR     10   7  87 S5        30.08S WCI   2
6HR MIN TEMP:   9; 6HR MAX TEMP:  15;

MADISON        FAIR      10  10 100 SW10      30.06F WCI  -3
MITCHELL       CLEAR      7   5  91 SE3       30.10F
6HR MIN TEMP:   6; 6HR MAX TEMP:  16;

SIOUX FALLS    PTCLDY     3   2  95 CALM      30.10F
6HR MIN TEMP:   3; 6HR MAX TEMP:  14;

WINNER         FAIR      19   8  62 SW8       30.07F WCI   9
YANKTON        CLEAR      9   5  85 CALM      30.14F VSB 1
$$

MNZ071-072-080-081-089-090-097-098-280700-
SOUTHWEST MINNESOTA

CITY           SKY/WX    TMP DP  RH WIND       PRES   REMARKS
FAIRMONT       CLEAR     12   7  79 W9        30.12S WCI   0
JACKSON        CLEAR     10   7  85 SW6       30.11F WCI   1
LUVERNE        CLEAR      3   0  85 CALM      30.12F
MARSHALL       CLEAR     16   9  73 W7        30.08F WCI   6
6HR MIN TEMP:  12; 6HR MAX TEMP:  16;

MONTEVIDEO     PTCLDY    16  12  86 W6        30.08F WCI   7
PIPESTONE      CLEAR      7   5  92 SW3       30.07F FOG
REDWOOD FALLS  CLEAR     12   7  80 W7        30.10F WCI   1
TRACY          CLEAR     15  11  83 W6        30.09R WCI   6
WINDOM         CLEAR     10   7  85 SW9       30.09F WCI  -2
WORTHINGTON    CLEAR     10 -31  13 SW7       30.09F WCI   0
$$

IAZ001>003-012>014-020>022-031-032-NEZ013-014-SDZ071-280700-
NORTHWEST IOWA

CITY           SKY/WX    TMP DP  RH WIND       PRES   REMARKS
CHEROKEE       CLEAR      6   4  94 S3        30.16F
DENISON        CLEAR     12  12 100 SW3       30.17S
ESTHERVILLE    CLEAR     11   8  88 SW10      30.12F WCI  -3
LE MARS        FAIR       5   3  92 S5        30.15F WCI  -4
ORANGE CITY    CLEAR      9   7  92 CALM      30.12F FOG
SHELDON        CLEAR      5   3  92 S5        30.11F WCI  -4
SIOUX CITY     CLEAR      7   3  84 E8        30.18F WCI  -6
6HR MIN TEMP:   6; 6HR MAX TEMP:  13;

SPENCER        CLEAR      6   2  83 SW8       30.13F WCI  -7
6HR MIN TEMP:   5; 6HR MAX TEMP:  12;

STORM LAKE     CLEAR     10   9  92 W9        30.15F WCI  -2
$$

ABBREVIATIONS USED IN REMARKS
   TC - TEMPERATURE IN CELSIUS
  WCI - WIND CHILL INDEX
   HX - HEAT INDEX
  VSB - VISIBILITY




USA.gov is the U.S. government's official web portal to all federal, state and local government web resources and services.